Regional Weather Roundup
Issued by NWS Sioux Falls, SD

Home | Current Version | Previous Version | Text Only | Print | Product List | Glossary On
Versions: 1 2 3 4 5 6 7 8 9 10 11 12 13 14 15 16 17 18 19 20 21 22 23 24 25 26 27 28 29 30 31 32 33 34 35 36 37 38 39 40 41 42 43 44 45 46 47 48 49 50
958
ASUS43 KFSD 211910
RWRFSD

WEATHER ROUNDUP FOR SE SOUTH DAKOTA/SW MINNESOTA/NW IOWA
NATIONAL WEATHER SERVICE SIOUX FALLS SD
200 PM CDT FRI JUL 21 2017

NOTE: "FAIR" INDICATES FEW OR NO CLOUDS BELOW 12,000 FEET WITH NO
SIGNIFICANT WEATHER AND OR OBSTRUCTIONS TO VISIBILITY.


SDZ038>040-050-052>070-212000-
SOUTHEAST SOUTH DAKOTA

CITY           SKY/WX    TMP DP  RH WIND       PRES   REMARKS
BROOKINGS      MOSUNNY   84  72  67 VRB7      29.85S
CHAMBERLAIN    SUNNY     93  73  51 S6        29.80R HX 102
HURON          SUNNY     89  71  55 S9G16     29.79F HX  95
MADISON        FAIR      82  77  83 S9        29.85F
MITCHELL       SUNNY     88  70  55 SE12      29.80F
SIOUX FALLS    CLOUDY    85  72  65 SE5       29.84R
WINNER         FAIR      95  71  45 VRB5      29.81F HX 102
YANKTON        CLOUDY    86  75  69 E10       29.79F HX  95
$$

MNZ071-072-080-081-089-090-097-098-212000-
SOUTHWEST MINNESOTA

CITY           SKY/WX    TMP DP  RH WIND       PRES   REMARKS
FAIRMONT       CLOUDY    74  69  85 SE20G28   29.86R
JACKSON        CLOUDY    77  70  78 SE16G23   29.88R
LUVERNE        CLOUDY    81  68  65 E8        29.86R
MARSHALL       MOSUNNY   83  72  69 S7        29.85R
MONTEVIDEO     MOSUNNY   88  73  62 S10G17    29.84S HX  96
PIPESTONE      MOSUNNY   82  72  69 S8        29.87S
REDWOOD FALLS  MOSUNNY   82  71  69 S16G25    29.85R
WINDOM         CLOUDY    79  70  73 SE12      29.87S
WORTHINGTON    CLOUDY    78  71  79 SE13      29.88R
$$

IAZ001>003-012>014-020>022-031-032-NEZ013-014-SDZ071-212000-
NORTHWEST IOWA

CITY           SKY/WX    TMP DP  RH WIND       PRES   REMARKS
CHEROKEE       CLOUDY    80  74  82 SE15G26   29.81F
DENISON        CLOUDY    88  79  74 VRB3G12   29.83S HX 102
ESTHERVILLE    CLOUDY    74  72  93 SE14G26   29.85R
ORANGE CITY    CLOUDY    79  72  78 SE9       29.84R
SHELDON        CLOUDY    79  73  83 S7        29.83R
SIOUX CITY     CLOUDY    82  74  76 CALM      29.80R
SPENCER        CLOUDY    80  73  79 SE24G33   29.82R
STORM LAKE     CLOUDY    77  72  83 SE15G23   29.83F
$$

ABBREVIATIONS USED IN REMARKS
   TC - TEMPERATURE IN CELSIUS
  WCI - WIND CHILL INDEX
   HX - HEAT INDEX
  VSB - VISIBILITY





USA.gov is the U.S. government's official web portal to all federal, state and local government web resources and services.